This is the latest recevied weather packets stored in our database for station/object K7TSD. If no packets are shown the sender has not sent any weather packets the latest 10 day(s).
| Time | Temp. | Humidity | Pressure | Rain* | Wind** | Luminosity | Snow |
|---|---|---|---|---|---|---|---|
| 1777480753 | 7.78° C | 57% | 1017.8 hPa | 0 mm | - | 351 W/m² | - |
| 1777480450 | 7.78° C | 59% | 1017.6 hPa | 0 mm | - | 269 W/m² | - |
| 1777480146 | 8.33° C | 58% | 1017.9 hPa | 0 mm | - | 498 W/m² | - |
| 1777479842 | 8.33° C | 59% | 1017.8 hPa | 0 mm | - | 593 W/m² | - |
| 1777479540 | 8.33° C | 59% | 1017.8 hPa | 0 mm | - | 393 W/m² | - |
| 1777479236 | 7.78° C | 58% | 1017.6 hPa | 0 mm | - | 596 W/m² | - |
| 1777478934 | 8.33° C | 57% | 1017.6 hPa | 0 mm | - | 555 W/m² | - |
| 1777478630 | 8.33° C | 57% | 1017.4 hPa | 0 mm | - | 588 W/m² | - |
| 1777478327 | 7.78° C | 56% | 1017.5 hPa | 0 mm | - | 551 W/m² | - |
| 1777478024 | 7.78° C | 59% | 1017.4 hPa | 0 mm | - | 541 W/m² | - |
| 1777477724 | 7.78° C | 56% | 1017.5 hPa | 0 mm | - | 516 W/m² | - |
| 1777477421 | 8.33° C | 56% | 1017.4 hPa | 0 mm | - | 470 W/m² | - |
| 1777477117 | 7.78° C | 53% | 1017.5 hPa | 0 mm | - | 460 W/m² | - |
| 1777476815 | 7.78° C | 52% | 1017.5 hPa | 0 mm | - | 436 W/m² | - |
| 1777476512 | 7.78° C | 48% | 1017.6 hPa | 0 mm | - | 412 W/m² | - |
| 1777476208 | 7.78° C | 50% | 1017.4 hPa | 0 mm | - | 379 W/m² | - |
| 1777475904 | 7.78° C | 48% | 1017.4 hPa | 0 mm | - | 364 W/m² | - |
| 1777475600 | 8.33° C | 45% | 1017.4 hPa | 0 mm | - | 364 W/m² | - |
| 1777475297 | 8.33° C | 46% | 1017.4 hPa | 0 mm | - | 324 W/m² | - |
| 1777474992 | 7.78° C | 44% | 1017.4 hPa | 0 mm | - | 322 W/m² | - |
| 1777474689 | 7.78° C | 44% | 1017.4 hPa | 0 mm | - | 316 W/m² | - |
| 1777474385 | 7.78° C | 47% | 1017.4 hPa | 0 mm | - | 292 W/m² | - |
| 1777474081 | 7.78° C | 46% | 1017.3 hPa | 0 mm | - | 289 W/m² | - |
| 1777473780 | 7.78° C | 46% | 1017.2 hPa | 0 mm | - | 278 W/m² | - |
| 1777473476 | 7.78° C | 46% | 1017.3 hPa | 0 mm | - | 264 W/m² | - |
* Rain latest hour (hover to see other rain measurements)
** Current wind speed in m/s (hover to see current wind gust speed)